ISARA (43050 NORAD) Tracking and Keplerian Element Data

This shows tracking and keplerian element data for the satellite.

Feedback or suggestion? Click here.




ElementValue
Catalog43050
NameISARA
Epoch Orbit10885
Epoch Day316.89497395
Epoch Year2019
RAAN45.9114
Inclination51.6386
Eccentricity0.0002229
Argument of Perigee358.9828
Mean Anonmoly1.1154
Mean Motion15.44740298
Decay Rate6.768E-05
L11 43050U 17071P 19316.89497395 .00006768 00000-0 15120-3 0 9991
L22 43050 51.6386 45.9114 0002229 358.9828 1.1154 15.44740298108853

Live tracking and technical data element details for ISARA (NORAD 43050). ISARA can be tracked NOW for your location showing map with azimuth and elevation plus other details from your city location.

Track the satellite on the map from your city or location and see movement details for azimuth, elevation, latitude, longitude, range, height, and movement on the map or in text.







IsCatalogInMostPopularTable: catalog: 43050, numindb: 332
Update: records affected: 1



GetName: 43050 ISARA

Hit Count: updated at: Thu, 14 Nov 2019 06:04:21 GMT